Location: �mondeville
(49.4591°N, 1.3431°W)
Time: 18:24:06
(UTC+00:00)

SL-16 R/B - Pass Details

Date: 22 October 2019
Orbit: 842 x 846 km, 71.0° (Epoch: 17 November)

Event Time Altitude Azimuth Distance (km) Brightness Sun altitude
Exits shadow 04:03:42 14° 334° (NNW) 2,176 4.2 -25.4°
Drops below altitude 10° 04:06:24 10° 3° (N) 2,480 4.8 -25.0°
Sets 04:10:07 0° 27° (NNE) 3,419 5.9 -24.4°
